Location: Macksville High School
(37.9611°N, 99.9654°W)
Time: 13:43:17
(UTC+00:00)

MOS 1-B - Pass Details

Date: 27 February 2020
Orbit: 906 x 913 km, 99.4° (Epoch: 29 March)

Event Time Altitude Azimuth Distance (km) Brightness Sun altitude
Rises 12:07:02 0° 13° (NNE) 3,554 7.6 -14.2°
Reaches altitude 10° 12:09:27 10° 12° (NNE) 2,608 6.9 -13.7°
Maximum altitude 12:15:17 83° 286° (WNW) 925 4.3 -12.5°
Drops below altitude 10° 12:21:04 10° 199° (SSW) 2,591 6.6 -11.4°
Sets 12:23:28 0° 198° (SSW) 3,528 7.3 -10.9°
